Weather History for Doylestown, PA

Change the Weather History Date:

Sunday, October 7, 2012

  Actual Average (KTTN) Record (KTTN)
Temperature  
Mean Temperature 47 °F 58 °F  
Max Temperature 51 °F 68 °F 86 °F (2007)
Min Temperature 44 °F 47 °F 30 °F (1984)
Degree Days  
Heating Degree Days 18 8  
Month to date heating degree days 49  
Since 1 July heating degree days 114  
Cooling Degree Days 0 1  
Month to date cooling degree days 7  
Year to date cooling degree days 962  
Moisture  
Dew Point 42 °F    
Average Humidity 83    
Maximum Humidity 100    
Minimum Humidity 68    
Precipitation  
Precipitation 0.10 in 0.15 in 2.20 in (1951)
Month to date precipitation 1.07  
Year to date precipitation 36.32  
Sea Level Pressure  
Sea Level Pressure 30.08 in    
Wind  
Wind Speed 1 mph (WNW)    
Max Wind Speed 5 mph    
Max Gust Speed -    
T = Trace of Precipitation, MM = Missing Value Source: NWS Daily Summary

Daily Weather History Graph

Daily Weather History Graph

Search for Another Location

Airport:

Trip Planner

Search our weather history database for the weather conditions in past years. The results will help you decide how hot, cold, wet, or windy it might be!

Date:

Astronomy

Oct. 07, 2012 Rise Set
Actual Time 7:03 AM EDT 6:32 PM EDT
Civil Twilight 6:36 AM EDT 6:59 PM EDT
Nautical Twilight 6:04 AM EDT 7:30 PM EDT
Astronomical Twilight 5:33 AM EDT 8:02 PM EDT
Moon 11:41 PM EDT (10/7) 1:39 PM EDT (10/7)
Length of Visible Light 12h 23m
Length of Day
11h 28m
Waning Gibbous, 56% of the Moon is Illuminated
Oct 7
Waning Gibbous
Oct 8
Last Quarter
Oct 15
New
Oct 21
First Quarter
Oct 29
Full

Hourly Weather History & Observations

Time (EDT) Temp. Windchill Dew Point Humidity Pressure Visibility Wind Dir Wind Speed Gust Speed Precip Events Conditions
12:54 AM 48.9 °F - 41.0 °F 74% 30.02 in - Calm Calm - N/A   Clear
1:54 AM 48.0 °F - 41.0 °F 77% 30.04 in - Calm Calm - N/A   Clear
2:54 AM 46.9 °F - 39.9 °F 77% 30.03 in - North 4.6 mph - N/A   Clear
3:54 AM 46.0 °F 43.9 °F 39.0 °F 76% 30.03 in - North 4.6 mph - N/A   Clear
4:54 AM 45.0 °F - 39.0 °F 80% 30.06 in - Calm Calm - N/A   Clear
5:54 AM 44.1 °F - 39.9 °F 85% 30.06 in - Calm Calm - N/A   Clear
6:54 AM 44.1 °F - 42.1 °F 93% 30.08 in - Calm Calm - N/A   Overcast
7:54 AM 46.0 °F - 41.0 °F 83% 30.10 in - Calm Calm - N/A   Overcast
8:54 AM 48.0 °F - 42.1 °F 80% 30.11 in - Calm Calm - N/A   Overcast
9:54 AM 50.0 °F - 41.0 °F 71% 30.12 in - NW 3.5 mph - N/A   Overcast
10:54 AM 50.0 °F - 41.0 °F 71% 30.12 in - Calm Calm - 0.00 in Rain Light Rain
11:54 AM 48.0 °F - 44.1 °F 86% 30.11 in - Calm Calm - 0.03 in Rain Light Rain
12:54 PM 48.9 °F - 44.1 °F 83% 30.11 in - South 3.5 mph - 0.01 in   Overcast
1:54 PM 50.0 °F - 43.0 °F 77% 30.08 in - Calm Calm - 0.00 in   Overcast
2:54 PM 50.0 °F - 44.1 °F 80% 30.06 in - SW 4.6 mph - N/A   Overcast
3:54 PM 50.0 °F - 42.1 °F 74% 30.04 in - Calm Calm - N/A   Overcast
4:54 PM 50.0 °F - 39.9 °F 68% 30.03 in - Calm Calm - N/A   Overcast
5:54 PM 50.0 °F - 42.1 °F 74% 30.04 in - WNW 4.6 mph - N/A   Overcast
6:54 PM 48.9 °F - 44.1 °F 83% 30.07 in - Calm Calm - 0.00 in   Overcast
8:54 PM 46.9 °F - 46.0 °F 97% 30.11 in - Calm Calm - 0.05 in Rain Light Rain
9:54 PM 46.9 °F - 46.0 °F 97% 30.13 in - Calm Calm - 0.01 in   Overcast
10:54 PM 46.0 °F - 46.0 °F 100% 30.13 in - Calm Calm - N/A   Scattered Clouds
11:45 PM 44.6 °F - 44.6 °F 100% 30.12 in - Calm Calm - N/A   Scattered Clouds
11:54 PM 45.0 °F - 45.0 °F 100% 30.13 in - Calm Calm - N/A   Mostly Cloudy